Vertical_Velocity
-3 -3 -0 -0 -0 1 -2 0 0 1 0 4 0 -1 0 -0 -2 -3 -2 1 -0 -1 5 -1 1 -0 0 3 2 2 1 3 0 4 -1 1 -0 -3 1 3 2 8 -2
-0 -2 -1 -2 -4 1 2 2 2 3 0 -1 -1 5 6 15 4 8 2 4 0 -0 0 -0 2 4 2 2 1 1 2 -1 0 2 -2 -1 0 -1 1 0 -1 -0 3
-3 -2 -4 -5 -5 -3 -1 -2 3 1 1 7 7 4 3 -19 30 15 9 0 2 2 3 1 1 1 4 2 1 2 1 -1 1 1 -1 1 -2 -0 1 0 -0 1 1
1 1 -1 -0 1 -0 -2 1 3 3 2 4 -0 6 7 4 -6 -8 27 13 6 0 5 8 16 6 5 -1 -4 -1 0 -1 0 -1 -2 -2 1 1 1 -1 -0 -2 -1
-3 -2 -1 -0 -2 1 -1 -1 3 -2 2 -1 3 5 3 1 -22 -25 0 17 12 6 -2 2 3 5 0 -10 -6 1 1 -1 2 1 0 0 -0 4 2 1 -1 -0 -2
1 1 0 -0 -1 -0 2 -1 1 -1 4 -0 -1 8 1 -0 -10 8 12 4 10 3 1 4 -3 8 8 4 3 0 1 2 1 -1 -5 1 -1 3 -0 1 -0 -0 -1
1 -1 2 -3 1 0 1 2 -1 1 4 -0 0 2 2 2 5 -3 -5 13 -5 -3 -2 -14 6 -5 4 -11 2 6 1 2 -1 -0 3 -1 2 0 -0 2 1 2 0
0 -1 -2 -2 3 -0 -1 -2 -4 -1 -2 1 4 -5 -2 6 12 18 25 7 1 -1 2 0 -5 -3 -12 2 4 -0 1 2 -2 1 1 -1 5 3 2 1 2 1 -1
-3 -0 -3 -2 2 -2 -1 0 -3 -0 -2 9 -3 1 7 -6 16 94 24 16 1 -2 5 7 8 -9 1 3 6 2 2 2 1 -2 -0 -1 -1 6 3 1 1 -2 -2
-3 0 -2 -2 -0 -1 -1 -1 -1 -2 2 1 0 -1 -3 0 6 211 5 17 0 -3 -1 4 12 -5 0 2 5 6 1 -1 -1 1 3 -1 2 5 1 -0 -3 -1 -0
-2 -2 0 -2 1 1 -2 -1 -1 -1 -3 0 2 -5 0 3 -6 -21 20 8 4 2 3 1 8 -4 -2 -2 2 2 2 -1 2 2 1 3 -0 1 -4 1 0 0 1
-1 -1 -2 -1 -1 1 -0 -3 0 -2 -3 1 5 -3 4 2 -3 1 -13 -8 -2 3 1 1 6 -11 8 2 1 2 3 2 -1 1 -0 1 2 2 1 -1 1 1 0
1 -1 -3 -4 0 1 -1 -3 -1 -0 1 -1 4 3 -4 -5 -4 -8 -5 -3 -11 2 -9 -3 5 3 1 2 -1 -1 2 -0 -1 0 -1 3 1 2 -1 0 1 -1 -1
-1 -1 -4 -4 -3 2 -1 -1 -4 -2 -2 4 2 6 3 0 2 -1 2 3 -2 -2 -3 -1 2 0 -2 1 -0 -1 -0 1 0 -0 -1 1 1 1 2 -0 -1 1 -1
-2 -1 -3 -3 -2 -1 0 -1 -4 -0 -1 -1 1 3 4 7 2 -3 -5 4 -4 1 2 0 -0 0 0 -2 -1 -0 -3 3 2 0 -3 -1 1 1 -0 -2 -2 -0 -1
1 -3 -0 -1 1 -1 -1 -3 -0 -2 -0 2 -0 -1 0 5 4 7 -0 -9 -6 0 2 4 6 4 -1 1 -1 3 2 2 3 3 0 -3 -3 -2 -0 1 -2 0 0
2 2 -2 1 -1 0 1 1 -3 -1 -1 -2 3 -1 1 0 4 4 2 6 -1 -1 3 4 4 1 6 0 3 1 -2 4 2 2 1 -1 -1 1 1 -0 1 -1 -0
4 -3 2 0 -2 0 -0 1 -2 -3 0 1 -1 4 3 -0 -0 -3 -3 1 1 2 1 0 0 2 0 2 1 -4 -0 2 0 2 -1 2 1 1 -0 0 1 -1 -1
3 -0 -0 -1 -2 -1 -0 4 2 0 -3 -3 -2 1 1 5 6 4 -7 -3 -1 2 1 3 1 6 -0 -1 -1 3 4 -2 0 -1 -3 1 -2 0 2 1 0 -0 0
5 7 7 5 1 3 2 3 5 4 1 2 0 -2 -3 1 -0 0 1 -5 1 -1 0 -3 3 1 4 -2 1 3 3 5 -0 -1 -2 1 -1 1 1 -0 -0 -1 -1
4 7 5 -1 -1 -2 -2 0 7 -1 2 1 2 1 -1 1 -2 5 3 3 -1 -1 -2 1 -3 -0 -1 2 -1 -1 -2 -4 -4 -0 0 0 3 -0 2 1 0 -1 -2
4 4 5 0 1 -1 5 3 3 -0 0 5 3 5 4 3 4 -3 2 3 8 1 1 -4 -5 -5 0 -5 1 -1 0 -1 -3 -4 -2 0 1 -2 -3 -1 -3 -0 2
6 4 1 3 0 0 -0 -0 1 10 11 3 -0 -0 -0 1 -3 -2 -0 -0 -2 -2 2 0 7 -2 -5 4 -1 3 -1 -0 -0 -2 1 -2 -2 1 -2 -2 1 -2 -0
6 3 6 5 1 3 -0 1 2 -2 -4 -5 2 5 -1 -5 3 1 4 3 -2 2 5 8 -1 6 7 4 1 -1 -1 -1 -2 -0 0 -1 1 2 2 3 -1 -1 -0
5 6 6 4 2 -2 4 2 0 2 5 0 4 7 6 1 -3 3 1 3 -2 -1 1 -2 2 2 4 6 3 0 0 4 -2 -2 -0 -1 1 0 1 0 -1 -1 2
4 8 7 6 1 0 1 8 0 0 -1 -4 3 0 -4 11 -8 -1 -1 7 3 1 2 -1 1 -4 1 -2 2 -0 1 2 3 0 1 0 1 -0 -0 -1 -2 -2 -2
Height
1462 1464 1466 1467 1470 1471 1473 1475 1478 1478 1480 1482 1483 1486 1487 1488 1489 1491 1492 1493 1494 1496 1499 1501 1503 1505 1507 1509 1510 1511 1513 1514 1516 1517 1518 1521 1522 1524 1526 1528 1529 1531 1534
1461 1463 1464 1466 1469 1471 1472 1473 1476 1477 1479 1482 1484 1484 1488 1489 1490 1491 1492 1491 1493 1495 1497 1501 1504 1506 1507 1509 1511 1513 1514 1516 1517 1519 1519 1522 1525 1527 1528 1531 1532 1534 1536
1461 1462 1464 1465 1467 1469 1471 1474 1475 1476 1479 1483 1483 1485 1486 1486 1486 1492 1493 1491 1493 1494 1497 1501 1503 1507 1508 1510 1513 1515 1516 1518 1520 1520 1522 1524 1526 1529 1531 1533 1535 1537 1538
1459 1461 1463 1464 1466 1467 1469 1472 1473 1475 1478 1480 1482 1484 1485 1483 1487 1491 1494 1490 1492 1493 1497 1499 1502 1506 1508 1511 1512 1516 1519 1520 1521 1523 1524 1527 1530 1531 1533 1535 1537 1539 1540
1457 1460 1461 1462 1465 1466 1467 1470 1472 1473 1476 1478 1478 1480 1481 1484 1482 1486 1487 1491 1490 1493 1496 1499 1503 1505 1507 1509 1514 1518 1521 1522 1524 1525 1527 1528 1531 1533 1535 1537 1539 1541 1543
1456 1458 1459 1461 1462 1463 1466 1468 1470 1471 1474 1475 1477 1478 1479 1480 1483 1486 1488 1488 1488 1493 1498 1501 1503 1507 1510 1514 1517 1520 1522 1524 1525 1526 1529 1531 1532 1535 1537 1539 1541 1543 1545
1455 1457 1458 1459 1460 1461 1464 1466 1468 1470 1471 1473 1476 1476 1476 1477 1480 1480 1481 1488 1489 1492 1499 1500 1504 1507 1512 1512 1519 1521 1523 1525 1527 1530 1531 1532 1535 1538 1539 1541 1543 1544 1547
1453 1456 1457 1458 1459 1460 1462 1463 1465 1467 1469 1470 1472 1473 1474 1474 1475 1480 1480 1480 1487 1493 1498 1500 1501 1505 1512 1517 1521 1524 1525 1528 1531 1532 1533 1535 1537 1540 1542 1543 1545 1546 1548
1451 1454 1455 1457 1458 1458 1460 1461 1462 1465 1466 1468 1468 1471 1473 1471 1475 1440 1467 1477 1485 1491 1498 1501 1505 1508 1513 1516 1521 1524 1527 1529 1532 1535 1537 1538 1541 1542 1543 1545 1546 1548 1550
1449 1452 1453 1456 1456 1456 1459 1459 1461 1463 1465 1466 1467 1469 1473 1474 1476 1454 1472 1479 1486 1492 1498 1502 1507 1508 1514 1517 1521 1525 1528 1530 1534 1536 1538 1540 1542 1544 1544 1546 1547 1549 1552
1446 1449 1452 1454 1456 1456 1457 1459 1460 1462 1464 1465 1466 1468 1470 1472 1478 1471 1473 1482 1488 1494 1498 1504 1507 1510 1515 1519 1523 1526 1529 1531 1534 1537 1539 1541 1543 1544 1545 1547 1547 1550 1552
1442 1445 1449 1452 1454 1455 1456 1458 1459 1461 1464 1465 1467 1469 1470 1471 1473 1477 1480 1486 1491 1495 1499 1504 1508 1514 1519 1522 1525 1528 1530 1532 1535 1538 1540 1543 1544 1545 1545 1546 1547 1549 1550
1440 1443 1447 1450 1452 1454 1455 1457 1460 1462 1464 1466 1467 1470 1471 1474 1476 1478 1482 1490 1493 1496 1500 1505 1510 1516 1520 1523 1526 1529 1532 1534 1537 1539 1542 1544 1544 1545 1547 1548 1548 1549 1550
1436 1440 1444 1448 1450 1452 1454 1456 1460 1462 1465 1466 1467 1469 1472 1474 1476 1478 1484 1487 1492 1497 1502 1507 1511 1516 1521 1523 1527 1530 1533 1536 1537 1539 1542 1545 1546 1547 1548 1549 1550 1550 1550
1433 1436 1440 1445 1447 1450 1453 1455 1458 1461 1464 1467 1469 1470 1472 1475 1477 1479 1484 1489 1492 1496 1502 1508 1512 1517 1520 1524 1528 1531 1534 1537 1538 1540 1542 1545 1547 1547 1549 1550 1551 1551 1550
1430 1433 1437 1442 1445 1447 1451 1454 1458 1461 1464 1466 1469 1471 1474 1476 1477 1480 1485 1489 1493 1498 1503 1509 1512 1516 1520 1523 1527 1531 1534 1537 1539 1541 1542 1544 1546 1548 1550 1550 1551 1552 1552
1422 1428 1433 1437 1442 1446 1449 1453 1458 1461 1464 1467 1470 1472 1476 1479 1482 1484 1487 1489 1495 1500 1504 1508 1512 1516 1520 1523 1528 1531 1535 1538 1539 1542 1543 1546 1548 1549 1550 1550 1551 1551 1553
1418 1423 1428 1433 1439 1443 1448 1451 1455 1460 1464 1467 1470 1473 1476 1479 1483 1486 1489 1492 1496 1501 1505 1509 1513 1516 1519 1523 1527 1532 1535 1538 1540 1542 1544 1547 1548 1549 1549 1550 1551 1552 1553
1411 1417 1423 1428 1434 1439 1445 1450 1454 1458 1463 1467 1471 1474 1477 1479 1482 1486 1490 1495 1498 1501 1504 1508 1512 1516 1519 1523 1528 1531 1533 1536 1539 1541 1544 1547 1547 1548 1549 1549 1550 1552 1553
1407 1413 1418 1424 1430 1436 1441 1446 1451 1456 1460 1465 1469 1473 1476 1479 1483 1486 1490 1494 1497 1500 1503 1507 1512 1515 1518 1521 1526 1529 1531 1533 1537 1541 1544 1545 1547 1547 1548 1549 1550 1552 1554
1402 1408 1413 1418 1424 1430 1435 1441 1446 1451 1457 1462 1467 1471 1475 1479 1483 1486 1489 1492 1496 1501 1504 1508 1511 1515 1518 1522 1526 1529 1531 1534 1538 1541 1542 1544 1544 1546 1547 1548 1550 1551 1553
1397 1403 1409 1414 1419 1426 1432 1437 1442 1447 1453 1459 1463 1467 1472 1477 1481 1484 1489 1492 1495 1498 1502 1505 1509 1512 1516 1521 1524 1528 1531 1535 1537 1539 1542 1543 1543 1544 1546 1548 1549 1550 1551
1394 1398 1404 1410 1414 1422 1428 1433 1439 1444 1450 1454 1458 1462 1467 1473 1477 1481 1486 1490 1495 1497 1500 1502 1508 1511 1514 1516 1520 1523 1526 1529 1533 1536 1538 1540 1542 1543 1544 1546 1547 1548 1549
1390 1393 1400 1406 1412 1418 1424 1431 1435 1440 1444 1449 1454 1458 1464 1469 1474 1478 1483 1487 1492 1496 1500 1503 1504 1509 1512 1514 1518 1520 1522 1526 1529 1532 1534 1536 1538 1540 1542 1543 1545 1547 1547
1389 1393 1397 1402 1408 1414 1422 1428 1433 1438 1442 1448 1451 1455 1458 1464 1470 1473 1479 1484 1488 1493 1498 1500 1504 1508 1510 1514 1516 1518 1521 1522 1527 1529 1530 1533 1536 1537 1539 1540 1541 1544 1544
1389 1391 1394 1399 1405 1412 1418 1423 1428 1434 1438 1442 1445 1449 1455 1458 1465 1468 1475 1479 1484 1489 1493 1496 1501 1506 1509 1513 1516 1518 1520 1522 1524 1526 1528 1530 1533 1534 1536 1537 1539 1541 1542